Location: Dammartin
(48.9032°N, 1.6195°E)
Time: 17:50:36
(UTC+00:00)

BlueWalker 3 - Pass Details

Date: 24 April 2024
Orbit: 482 x 494 km, 53.2° (Epoch: 22 May)

Event Time Altitude Azimuth Distance (km) Brightness Sun altitude
Rises 23:00:28 0° 295° (WNW) 2,584 6.1 -26.8°
Reaches altitude 10° 23:02:39 10° 295° (WNW) 1,701 5.0 -26.9°
Enters shadow 23:04:10 23° 294° (WNW) 1,108 4.0 -26.9°
